User: anonymous   Login
Location: Theydon Bois
(51.6750°N, 0.1050°E)
Time: 22:36:25
(UTC+00:00)
Language:

Cosmos 1076 Rocket - Orbit

View from above orbital plane
View from above orbital plane
View from above satellite
View from above satellite

Ground track
Ground track

The orbit data is extracted from the following two-line orbital elements,

1 11267U 79011B   17346.80496349  .00000088  00000-0  67126-5 0  9992
2 11267  82.5266  60.8569 0016822   1.1866 358.9388 14.88873279102041
Epoch (UTC): 12 December 2017 19:19:08
Eccentricity: 0.0016822
inclination: 82.5266°
perigee height: 590 km
apogee height: 613 km
right ascension of ascending node: 60.8569°
argument of perigee: 1.1866°
revolutions per day: 14.88873279
mean anomaly at epoch: 358.9388°
orbit number at epoch: 10204

The dashed part of the orbit path shows where the satellite is in the earth's shadow,  

DLR